DW2258 Weather Reports


time (UTC)temp
F
wind
direction
speed
knots
gust
knots
rain 1hr
in
rain 24hr
in
rain mn
in
humidity
%
barometer
mb
20260507174632 48 210 4.3 11.3 0.00 0.26 0.07 88 1003.7
20260507173134 48 188 8.7 13.0 0.00 0.26 0.07 86 1003.8
20260507171657 48 171 6.1 13.9 0.00 0.26 0.07 87 1003.7
20260507170134 49 245 5.2 9.6 0.00 0.26 0.07 87 1003.9
20260507164640 48 214 7.0 12.2 0.00 0.26 0.07 87 1004.1
20260507163139 49 196 5.2 9.6 0.00 0.26 0.07 87 1004.1
20260507161637 50 243 3.5 8.7 0.00 0.26 0.07 85 1004.1
20260507160139 49 220 5.2 9.6 0.00 0.26 0.07 85 1004.3
20260507154638 51 191 5.2 8.7 0.00 0.26 0.07 83 1004.6
20260507153141 51 201 4.3 7.0 0.00 0.26 0.07 81 1004.8
20260507151640 52 280 6.1 7.8 0.00 0.26 0.07 80 1005.0
20260507150140 52 285 3.5 7.8 0.00 0.26 0.07 83 1004.7
20260507144639 51 309 5.2 9.6 0.00 0.26 0.07 84 1004.7
20260507143142 51 319 6.1 8.7 0.00 0.26 0.07 84 1004.8
20260507141643 50 307 4.3 9.6 0.00 0.26 0.07 88 1005.2
20260507140142 49 328 6.1 10.4 0.00 0.26 0.07 90 1005.4
20260507134642 48 324 4.3 8.7 0.00 0.26 0.07 92 1005.3
20260507133147 47 270 1.7 7.8 0.00 0.26 0.07 92 1006.2
20260507131646 47 324 2.6 7.0 0.00 0.26 0.07 93 1005.3
20260507130206 47 323 1.7 7.0 0.00 0.26 0.07 93 1005.3
20260507124707 47 298 3.5 7.8 0.00 0.26 0.07 94 1005.8
20260507123147 46 12 3.5 7.8 0.00 0.26 0.07 94 1005.3
20260507121629 46 337 5.2 11.3 0.00 0.26 0.07 95 1005.1
20260507120130 46 313 4.3 9.6 0.00 0.26 0.07 95 1005.3
20260507114631 46 287 5.2 10.4 0.00 0.26 0.07 95 1005.7
20260507113152 46 322 4.3 8.7 0.00 0.26 0.07 95 1005.5
20260507111631 46 318 4.3 7.8 0.00 0.26 0.07 95 1005.7
20260507110133 46 259 5.2 7.8 0.00 0.26 0.07 96 1005.9
20260507104633 46 324 6.1 10.4 0.00 0.26 0.07 96 1005.4
20260507103134 46 330 7.0 13.9 0.00 0.26 0.07 96 1005.0
20260507101655 46 277 8.7 13.9 0.00 0.26 0.07 96 1004.3
20260507100139 47 315 7.8 13.0 0.00 0.26 0.07 96 1004.4
20260507094640 47 313 4.3 13.0 0.00 0.26 0.07 96 1004.4
20260507093203 47 317 8.7 13.9 0.00 0.26 0.07 96 1004.2
20260507091644 47 308 8.7 13.9 0.00 0.26 0.07 96 1004.5
20260507090143 47 305 7.8 11.3 0.00 0.26 0.07 96 1004.1
20260507084646 47 322 7.8 13.0 0.01 0.26 0.07 96 1003.7
20260507083147 48 303 8.7 14.8 0.01 0.26 0.07 96 1003.7
20260507081628 48 295 7.8 13.9 0.01 0.26 0.07 96 1003.7
20260507080147 48 330 7.8 12.2 0.01 0.26 0.07 96 1003.7
20260507074630 48 305 7.0 12.2 0.00 0.25 0.06 96 1003.5
20260507073130 48 285 7.0 9.6 0.04 0.25 0.06 96 1003.4
20260507071631 47 250 6.1 8.7 0.04 0.25 0.06 96 1003.2
20260507070130 45 245 4.3 7.8 0.04 0.25 0.06 96 1003.2
20260507064634 45 233 5.2 9.6 0.06 0.25 0.06 96 1003.2
20260507063133 45 218 7.0 11.3 0.02 0.21 0.02 96 1003.6
20260507061634 46 225 8.7 20.0 0.02 0.21 0.02 96 1003.4
20260507060133 46 226 13.0 20.9 0.02 0.21 0.02 96 1003.6
20260507054653 46 258 13.9 20.0 0.00 0.19 0.00 96 1003.6
20260507053136 46 225 12.2 20.0 0.00 0.19 0.00 96 1003.6
20260507051635 46 240 12.2 16.5 0.00 0.19 0.00 95 1003.8
20260507050135 46 214 10.4 17.4 0.00 0.19 0.00 95 1003.9
20260507044635 46 220 12.2 20.9 0.00 0.19 0.19 95 1003.9
20260507043140 46 266 9.6 15.6 0.01 0.19 0.19 95 1004.1
20260507041641 46 244 9.6 22.6 0.01 0.19 0.19 96 1004.1
20260507040142 46 191 10.4 24.3 0.01 0.19 0.19 95 1004.3
20260507034642 47 166 13.0 26.1 0.03 0.19 0.19 95 1004.2
20260507033141 47 179 12.2 20.0 0.04 0.18 0.18 95 1004.5
20260507031647 47 204 12.2 21.7 0.06 0.18 0.18 95 1004.6
20260507030129 47 191 13.0 20.9 0.10 0.18 0.18 95 1004.8
20260507024630 47 191 13.0 20.9 0.10 0.16 0.16 95 1005.3
20260507023147 47 164 17.4 24.3 0.10 0.14 0.14 95 1005.5
20260507021631 47 170 20.0 27.8 0.10 0.12 0.12 94 1005.8
20260507020154 47 189 15.6 25.2 0.08 0.08 0.08 94 1006.2
20260507014633 47 179 13.0 22.6 0.05 0.05 0.05 94 1006.7
20260507013133 47 188 14.8 20.9 0.04 0.04 0.04 94 1006.9
20260507011653 47 166 13.0 20.9 0.02 0.02 0.02 94 1007.0
20260507010135 47 187 12.2 19.1 0.00 0.00 0.00 94 1007.5
20260507004636 47 197 8.7 15.6 0.00 0.00 0.00 93 1007.8
20260507003136 47 156 9.6 16.5 0.00 0.00 0.00 93 1008.0
20260507001634 47 192 11.3 19.1 0.00 0.00 0.00 93 1008.1
20260507000139 47 198 12.2 20.0 0.00 0.00 0.00 93 1008.1
20260506234639 47 165 11.3 19.1 0.00 0.00 0.00 93 1008.0
20260506233140 47 183 12.2 19.1 0.00 0.00 0.00 93 1008.0
20260506231639 47 224 11.3 18.2 0.00 0.00 0.00 93 1008.4
20260506230143 47 179 10.4 16.5 0.00 0.00 0.00 93 1008.1
20260506224704 47 204 9.6 16.5 0.00 0.00 0.00 93 1008.6
20260506223204 47 203 5.2 15.6 0.00 0.00 0.00 93 1009.0
20260506221643 47 201 7.8 12.2 0.00 0.00 0.00 93 1009.3
20260506220142 46 244 4.3 8.7 0.00 0.00 0.00 93 1009.7
20260506214648 47 260 4.3 13.0 0.00 0.00 0.00 93 1009.6
20260506213148 47 254 7.0 14.8 0.00 0.00 0.00 92 1009.8
20260506211628 47 254 8.7 15.6 0.00 0.00 0.00 92 1009.9
20260506210148 48 223 11.3 22.6 0.00 0.00 0.00 92 1009.2
20260506204631 48 194 14.8 23.5 0.00 0.00 0.00 92 1008.8
20260506203153 49 193 12.2 23.5 0.00 0.00 0.00 92 1008.7
20260506201630 48 201 12.2 19.1 0.00 0.00 0.00 92 1008.7
20260506200131 49 201 8.7 16.5 0.00 0.00 0.00 91 1009.0
20260506194630 48 247 6.1 9.6 0.00 0.00 0.00 91 1009.6
20260506193135 49 267 6.1 13.0 0.00 0.00 0.00 91 1009.7
20260506191636 50 231 7.0 19.1 0.00 0.00 0.00 91 1009.8
20260506190136 49 228 7.8 17.4 0.00 0.00 0.00 92 1009.9
20260506184636 49 262 6.1 11.3 0.00 0.00 0.00 91 1010.0
20260506183141 49 243 7.8 15.6 0.00 0.00 0.00 92 1010.3
20260506181643 49 226 5.2 13.0 0.00 0.00 0.00 92 1010.4
20260506180143 49 241 6.1 10.4 0.00 0.00 0.00 92 1010.6